"Time","Temp","Dewpoint","Humidity","Pressure","Direction","Speed","Gust","Precip","PrecipRate"
"00:04:59","57","53.2","87","30.21","142","0","0","0.00","0.00"
"00:09:57","56.9","53.1","87","30.21","142","0","0","0.00","0.00"
"00:14:56","56.8","53","87","30.22","142","0","0","0.00","0.00"
"00:19:58","56.6","53.1","88","30.22","142","0","0","0.00","0.00"
"00:24:57","56.3","52.9","88.1","30.22","142","0","0","0.00","0.00"
"00:29:59","56.1","52.9","89","30.22","142","0","0","0.00","0.00"
"00:34:57","55.9","52.7","89","30.22","142","0","0","0.00","0.00"
"00:39:56","55.8","52.7","89.4","30.22","142","0","0","0.00","0.00"
"00:44:58","55.7","52.8","90","30.22","142","0","0","0.00","0.00"
"00:49:58","55.6","52.7","90","30.22","142","0","0","0.00","0.00"
"00:54:58","55.6","52.7","90","30.22","142","0","0","0.00","0.00"
"00:59:57","55.5","52.6","90","30.23","142","0","0","0.00","0.00"
"01:04:58","55.4","52.5","90","30.23","142","0","0","0.00","0.00"
"01:09:58","55.3","52.4","90","30.23","142","0","0","0.00","0.00"
"01:14:57","55.3","52.4","90","30.23","142","0","0","0.00","0.00"
"01:19:59","55.2","52.4","90.4","30.23","142","0.4","1.2","0.00","0.00"
"01:24:57","55.1","52.5","90.8","30.23","142","0","0","0.00","0.00"
"01:29:59","55.1","52.3","90.3","30.23","142","0","0","0.00","0.00"
"01:34:57","55","52.2","90.1","30.23","142","0","0","0.00","0.00"
"01:39:56","55","52.3","90.6","30.23","142","0","0","0.00","0.00"
"01:44:58","54.8","52.2","91","30.23","142","0","0","0.00","0.00"
"01:49:56","54.7","52.1","91","30.23","142","0","0","0.00","0.00"
"01:54:58","54.6","52","91","30.23","142","0","0","0.00","0.00"
"01:59:56","54.5","52.1","91.7","30.23","142","0","0","0.00","0.00"
"02:04:56","54.4","52.1","92","30.23","142","0","0","0.00","0.00"
"02:09:59","54.4","52.1","92","30.23","142","0","0","0.00","0.00"
"02:14:58","54.4","52.1","92","30.23","142","0","0","0.00","0.00"
"02:19:56","54.4","52.1","92","30.23","142","0","0","0.00","0.00"
"02:24:58","54.3","52","92","30.23","142","0","0","0.00","0.00"
"02:29:56","54.2","51.9","92","30.23","142","0","0","0.00","0.00"
"02:34:58","54.1","51.8","92","30.23","142","0","0","0.00","0.00"
"02:39:57","54.1","52.1","93","30.23","142","0","0","0.00","0.00"
"02:44:59","54.1","52.1","93","30.23","142","0","0","0.00","0.00"
"02:49:57","54.2","52.2","93","30.23","142","0","0","0.00","0.00"
"02:54:59","54.2","52.2","93","30.23","142","0","0","0.00","0.00"
"02:59:57","54.2","52.2","93","30.23","142","0","0","0.00","0.00"
"03:04:57","54.2","52","92.1","30.23","142","0","0","0.00","0.00"
"03:09:57","54.2","51.9","92.2","30.23","142","0","0","0.00","0.00"
"03:14:59","54.2","52.2","93","30.23","142","0.4","1.2","0.00","0.00"
"03:19:57","54.1","52.1","93","30.23","142","0","1.2","0.00","0.00"
"03:24:59","54","52","93","30.23","142","0","0","0.00","0.00"
"03:29:57","53.9","51.9","93","30.23","142","0","0","0.00","0.00"
"03:34:59","53.8","51.8","93","30.23","142","0","0","0.00","0.00"
"03:39:58","53.7","51.7","93","30.23","142","0","0","0.00","0.00"
"03:44:56","53.5","51.5","93","30.24","142","0","0","0.00","0.00"
"03:49:56","53.5","51.7","93.8","30.24","142","0","0","0.00","0.00"
"03:54:59","53.5","51.8","94","30.24","142","0","0","0.00","0.00"
"03:59:57","53.4","51.7","94","30.24","142","0","0","0.00","0.00"
"04:04:57","53.4","51.7","94","30.24","142","0","0","0.00","0.00"
"04:09:59","53.3","51.7","94.4","30.24","142","0","0","0.00","0.00"
"04:14:59","53.2","51.8","95","30.24","142","0","0","0.00","0.00"
"04:19:58","53.1","51.7","95","30.24","142","0","0","0.00","0.00"
"04:24:56","53","51.5","94.8","30.24","142","0","0","0.00","0.00"
"04:29:58","53","51.6","95","30.24","142","0","0","0.00","0.00"
"04:34:56","53","51.6","95","30.24","142","0","0","0.00","0.00"
"04:39:59","52.9","51.5","95","30.24","142","0","0","0.00","0.00"
"04:44:57","52.9","51.5","95","30.25","142","0","0","0.00","0.00"
"04:49:59","52.8","51.5","95","30.25","142","0","0","0.00","0.00"
"04:54:58","52.8","51.4","95","30.25","142","0","0","0.00","0.00"
"04:59:56","52.7","51.3","95","30.25","142","0","0","0.00","0.00"
"05:04:56","52.6","51.2","95","30.25","142","0","0","0.00","0.00"
"05:09:56","52.5","51.1","95","30.25","142","0","0","0.00","0.00"
"05:14:58","52.4","51","95","30.25","142","0","0","0.00","0.00"
"05:19:56","52.4","51.2","95.6","30.25","142","0","0","0.00","0.00"
"05:24:58","52.6","51.5","96","30.25","142","0","0","0.00","0.00"
"05:29:56","52.6","51.5","96","30.25","142","0","0","0.00","0.00"
"05:34:58","52.5","51.4","96","30.25","142","0","0","0.00","0.00"
"05:39:57","52.4","51.2","95.7","30.25","142","0","0","0.00","0.00"
"05:44:59","52.2","51.1","96","30.26","142","0","0","0.00","0.00"
"05:49:57","52.1","51","96","30.26","142","0","0","0.00","0.00"
"05:54:56","52","50.9","95.8","30.26","142","0","0","0.00","0.00"
"05:59:58","52.1","51","96","30.26","142","0","0","0.00","0.00"
"06:04:58","52.1","51","96","30.26","142","0","0","0.00","0.00"
"06:09:58","52.1","51","96","30.26","157","0","0","0.00","0.00"
"06:14:57","52.1","51","96","30.27","157","0","0","0.00","0.00"
"06:19:56","52.1","51","96","30.27","157","0","0","0.00","0.00"
"06:24:58","52","50.9","96","30.27","157","0","0","0.00","0.00"
"06:29:56","51.9","50.8","96","30.27","157","0","0","0.00","0.00"
"06:34:58","51.9","50.8","96","30.27","157","0","0","0.00","0.00"
"06:39:56","52","50.9","96","30.27","155","0","1.2","0.00","0.00"
"06:44:58","52.1","51","96","30.28","154","0","1.2","0.00","0.00"
"06:49:59","52.3","51.2","96","30.28","165","0","0","0.00","0.00"
"06:54:57","52.5","51.5","96.4","30.28","248","0","1.2","0.00","0.00"
"06:59:58","52.7","51.9","97","30.28","30","0","0","0.00","0.00"
"07:04:58","52.9","52.1","97","30.28","30","0","0","0.00","0.00"
"07:09:57","53.1","52.3","97","30.28","30","0","0","0.00","0.00"
"07:14:59","53.4","52.6","97","30.28","38","0","0","0.00","0.00"
"07:19:57","53.8","53","97","30.28","40","0","0","0.00","0.00"
"07:24:59","54.2","53.4","97","30.28","43","0","0","0.00","0.00"
"07:29:57","54.6","53.8","97","30.29","43","0","0","0.00","0.00"
"07:34:58","55","54.2","97","30.29","43","0","0","0.00","0.00"
"07:39:57","55.4","54.6","97","30.29","43","0","0","0.00","0.00"
"07:44:58","55.8","55","97","30.29","43","0","0","0.00","0.00"
"07:49:56","56.3","55.5","97","30.29","43","0","0","0.00","0.00"
"07:54:58","56.8","56","97","30.29","93","0","1.2","0.00","0.00"
"07:59:56","57.2","56.2","96.3","30.29","98","0.8","2.4","0.00","0.00"
"08:04:59","57.6","56.4","95.4","30.29","96","1","2.4","0.00","0.00"
"08:09:58","58.2","56.5","94.1","30.29","91","0.4","3.6","0.00","0.00"
"08:14:56","58.7","56.9","93.7","30.30","325","0.4","3.5","0.00","0.00"
"08:19:57","59.4","57.4","93","30.30","325","0","0","0.00","0.00"
"08:24:59","60.1","57.8","92.1","30.30","325","0.1","1.2","0.00","0.00"
"08:29:56","60.7","57.9","90.5","30.30","325","0.1","1.2","0.00","0.00"
"08:34:57","61.4","57.9","88.4","30.30","325","0","0","0.00","0.00"
"08:39:56","62","57.8","86.1","30.30","325","0.3","1.2","0.00","0.00"
"08:44:58","62.6","58","84.9","30.30","327","0.1","1.2","0.00","0.00"
"08:49:59","63.2","58.3","84.2","30.30","341","0.2","1.2","0.00","0.00"
"08:54:56","63.7","58.4","83","30.30","58","0.4","3.6","0.00","0.00"
"08:59:57","64.1","58.2","81.4","30.30","57","1.3","3.6","0.00","0.00"
"09:04:56","64.2","58.1","80.7","30.30","105","2","4.8","0.00","0.00"
"09:09:59","64.3","57.9","79.8","30.30","126","1.5","4.8","0.00","0.00"
"09:14:58","64.5","58.2","80","30.30","84","0.2","1.2","0.00","0.00"
"09:19:59","64.8","58.5","79.9","30.30","83","0.8","3.6","0.00","0.00"
"09:24:57","65.2","58.5","78.8","30.30","90","1.3","4.8","0.00","0.00"
"09:29:58","65.4","58","76.8","30.30","91","1.1","3.6","0.00","0.00"
"09:34:59","65.7","58.5","77.5","30.30","86","0.4","2.4","0.00","0.00"
"09:39:58","66.1","58.4","76.3","30.30","59","0.7","3.6","0.00","0.00"
"09:44:59","66.4","58","74.2","30.30","59","0","1.2","0.00","0.00"
"09:49:56","66.4","57.5","73.1","30.30","80","0","0","0.00","0.00"
"09:54:57","66.4","57.1","72","30.30","80","0.4","2.4","0.00","0.00"
"09:59:59","66.6","57.9","73.7","30.30","77","0.4","2.4","0.00","0.00"
"10:04:59","67.1","58.5","74.1","30.29","77","0.2","3.6","0.00","0.00"
"10:09:58","67.4","57.9","71.5","30.29","72","1.3","3.6","0.00","0.00"
"10:14:57","67.6","57.3","69.4","30.29","3","2.7","7.2","0.00","0.00"
"10:19:59","67.7","57.5","69.7","30.29","6","1.2","4.6","0.00","0.00"
"10:24:57","68","57","68","30.29","349","2.3","6","0.00","0.00"
"10:29:59","68.2","57.3","68.2","30.29","335","2.3","7.2","0.00","0.00"
"10:34:58","68.7","57.6","67.8","30.29","75","1.6","7.2","0.00","0.00"
"10:39:57","68.9","57.7","67.5","30.29","149","2.2","6.9","0.00","0.00"
"10:44:56","69.1","57.8","67.2","30.29","166","1","2.4","0.00","0.00"
"10:49:58","69.4","57.8","66.7","30.29","136","1.7","6","0.00","0.00"
"10:54:57","69.9","58.7","67.7","30.29","345","1.1","4.8","0.00","0.00"
"10:59:59","70.2","58","65.2","30.29","3","1.3","4.8","0.00","0.00"
"11:04:59","69.9","58.3","66.7","30.29","125","1.9","4.8","0.00","0.00"
"11:09:58","69.9","59.1","68.5","30.29","122","0.9","2.4","0.00","0.00"
"11:14:57","70.5","58.6","66.2","30.29","119","0.9","3.6","0.00","0.00"
"11:19:59","70.5","58","64.6","30.29","116","2","4.8","0.00","0.00"
"11:24:57","70.3","57.5","64","30.29","119","1.8","3.6","0.00","0.00"
"11:29:57","71.1","59.1","65.7","30.29","93","0.9","3.6","0.00","0.00"
"11:34:59","72","59","63.8","30.29","28","1.9","4.8","0.00","0.00"
"11:39:58","71.8","58.4","62.7","30.29","79","1.6","4.8","0.00","0.00"
"11:44:56","72.1","58.6","62.6","30.29","331","2","6","0.00","0.00"
"11:49:58","72.2","58.2","61.6","30.28","349","2.8","10.8","0.00","0.00"
"11:54:57","72.2","57.9","60.8","30.28","112","2.8","8.4","0.00","0.00"
"11:59:59","72.1","58.2","61.5","30.28","359","1","3.6","0.00","0.00"
"12:04:59","72.4","59.2","63.3","30.28","23","1.5","4.8","0.00","0.00"
"12:09:58","72.5","57.8","59.8","30.28","356","1.9","4.8","0.00","0.00"
"12:14:56","72.8","58.6","61.1","30.28","4","1.1","7.2","0.00","0.00"
"12:19:58","72.7","57.6","59.1","30.28","145","1.5","5.8","0.00","0.00"
"12:24:58","72.7","57.6","59","30.28","133","2.5","6","0.00","0.00"
"12:29:56","72.2","57.2","59.3","30.28","119","2.2","6","0.00","0.00"
"12:34:58","72.3","58.1","61","30.28","130","3","9.6","0.00","0.00"
"12:39:58","72.1","57.4","59.9","30.28","122","2.6","9.2","0.00","0.00"
"12:44:56","72.3","58.1","61.1","30.28","101","2.3","6","0.00","0.00"
"12:49:59","73.2","58.9","60.8","30.28","30","1.7","4.8","0.00","0.00"
"12:54:57","73.1","58.5","60.3","30.28","98","2.5","6","0.00","0.00"
"12:59:59","72.4","58.1","60.9","30.28","119","1.9","4.8","0.00","0.00"
"13:04:58","73","58.6","60.6","30.27","117","2.6","10.8","0.00","0.00"
"13:09:57","72.3","58.1","61","30.27","121","2","6","0.00","0.00"
"13:14:57","72.3","57.5","59.5","30.27","173","1.2","3.6","0.00","0.00"
"13:19:59","72.3","57.4","59.5","30.27","79","1.6","4.8","0.00","0.00"
"13:24:58","72.4","58.3","61.4","30.27","111","1.5","4.8","0.00","0.00"
"13:29:56","73.3","59.5","62","30.27","145","1.5","7.2","0.00","0.00"
"13:34:59","73","58.1","59.6","30.27","110","3.1","8.4","0.00","0.00"
"13:39:58","73.2","59.5","62.3","30.27","97","2.6","8.4","0.00","0.00"
"13:44:57","73.4","59.2","61.1","30.27","136","1.6","5.8","0.00","0.00"
"13:49:59","73","58.5","60.5","30.27","127","2.2","4.8","0.00","0.00"
"13:54:58","73.4","59.4","61.7","30.27","78","2.1","7.2","0.00","0.00"
"13:59:56","74","59.7","61.1","30.27","61","1.4","3.6","0.00","0.00"
"14:04:56","73.5","58.1","58.7","30.26","113","1.6","4.8","0.00","0.00"
"14:09:59","73.2","57.7","58.4","30.26","96","3.1","13.2","0.00","0.00"
"14:14:58","73","57.1","57.4","30.26","107","2.3","8.4","0.00","0.00"
"14:19:56","73.3","57.5","57.6","30.26","134","3.1","8.4","0.00","0.00"
"14:24:58","73.2","57.1","57","30.26","115","2.8","8.1","0.00","0.00"
"14:29:57","73.4","57.1","56.7","30.26","124","2.6","7.2","0.00","0.00"
"14:34:59","73.8","57.5","56.8","30.25","36","2.3","6","0.00","0.00"
"14:39:58","73.5","57.1","56.6","30.25","136","2.9","12","0.00","0.00"
"14:44:57","73.5","57.6","57.6","30.25","132","2.2","7.2","0.00","0.00"
"14:49:59","73.6","57.7","57.5","30.25","122","2.2","6.9","0.00","0.00"
"14:54:58","73.9","57.3","56.2","30.25","120","1.2","4.8","0.00","0.00"
"14:59:56","74","57.7","56.8","30.25","135","2.4","7.2","0.00","0.00"
"15:04:56","73.6","56.4","55","30.25","114","2.1","4.8","0.00","0.00"
"15:09:59","73.8","57","55.8","30.25","123","1.4","6","0.00","0.00"
"15:14:58","74.3","58.3","57.4","30.25","127","1.2","4.8","0.00","0.00"
"15:19:57","73.7","56.6","55.2","30.25","118","2.7","7.2","0.00","0.00"
"15:24:59","73.3","56.8","56.3","30.25","123","1.8","7.2","0.00","0.00"
"15:29:58","73.4","56.9","56.5","30.25","133","2.3","4.8","0.00","0.00"
"15:34:56","73.5","56.1","54.6","30.24","143","2","4.8","0.00","0.00"
"15:39:56","73.6","55.9","54.1","30.24","127","2.3","6","0.00","0.00"
"15:44:58","73.5","56.3","55","30.24","95","1.7","5.8","0.00","0.00"
"15:49:56","73.3","55.5","53.8","30.24","120","3.6","9.6","0.00","0.00"
"15:54:59","73.3","56.4","55.5","30.24","105","1.8","3.6","0.00","0.00"
"15:59:57","73.5","55.1","52.7","30.24","128","2.7","7.2","0.00","0.00"
"16:04:57","73.7","55.6","53.4","30.24","147","1.5","3.6","0.00","0.00"
"16:09:56","73.8","55.8","53.4","30.24","129","1.6","4.8","0.00","0.00"
"16:14:59","73.7","55","52","30.24","143","2.5","6","0.00","0.00"
"16:19:57","73.5","54.8","52.2","30.23","134","1.9","5.8","0.00","0.00"
"16:24:56","73.4","53.7","50.2","30.23","149","1","3.6","0.00","0.00"
"16:29:58","73.7","55","52","30.23","135","1.2","6","0.00","0.00"
"16:34:56","73.5","54.5","51.3","30.23","124","2.6","8.4","0.00","0.00"
"16:39:57","73.6","55.1","52.4","30.23","131","1.7","4.8","0.00","0.00"
"16:44:57","73.9","55.5","52.5","30.23","90","1.6","3.5","0.00","0.00"
"16:49:59","73.9","55.1","52","30.23","101","2","4.8","0.00","0.00"
"16:54:58","73.7","55","52","30.23","67","1.4","3.6","0.00","0.00"
"16:59:56","73.7","54.8","51.8","30.23","110","2.4","7.2","0.00","0.00"
"17:04:56","73.6","54.6","51.5","30.22","139","2.5","7.2","0.00","0.00"
"17:09:59","73.6","55.2","52.6","30.22","144","2.7","8.4","0.00","0.00"
"17:14:59","73.5","54.3","51.2","30.22","120","2.2","4.8","0.00","0.00"
"17:19:57","73.2","54.2","51.4","30.22","119","2.3","6","0.00","0.00"
"17:24:59","72.9","55.3","54.1","30.22","137","1.9","6","0.00","0.00"
"17:29:58","73","54.7","52.7","30.22","126","2.9","9.6","0.00","0.00"
"17:34:56","72.8","54.3","52.4","30.22","131","2.4","6","0.00","0.00"
"17:39:56","72.8","54.5","52.6","30.22","139","2","6","0.00","0.00"
"17:44:59","72.9","54.3","52.2","30.22","139","2.7","10.8","0.00","0.00"
"17:49:57","73","55.7","54.6","30.22","163","2","4.8","0.00","0.00"
"17:54:56","72.6","55.4","54.9","30.22","186","2.7","4.8","0.00","0.00"
"17:59:58","72.3","55.1","54.8","30.22","134","2.9","6","0.00","0.00"
"18:04:58","72.2","55","54.9","30.21","135","1.3","5.8","0.00","0.00"
"18:09:57","72","55","55.2","30.21","134","1.6","3.6","0.00","0.00"
"18:14:56","71.9","55.1","55.5","30.21","133","1.2","4.8","0.00","0.00"
"18:19:59","71.7","54.8","55.1","30.21","124","2.6","4.8","0.00","0.00"
"18:24:58","71.5","54.8","55.6","30.21","128","2.4","4.8","0.00","0.00"
"18:29:56","71.3","55","56.3","30.21","162","1.6","4.8","0.00","0.00"
"18:34:59","71.2","54.6","55.8","30.21","142","1.8","7.2","0.00","0.00"
"18:39:59","71.1","54.9","56.6","30.21","121","2.2","7.2","0.00","0.00"
"18:44:57","70.8","54.7","56.8","30.21","124","2.3","4.8","0.00","0.00"
"18:49:56","70.6","55","57.7","30.21","143","1.7","7.2","0.00","0.00"
"18:54:58","70.4","54.8","57.9","30.21","137","2","4.8","0.00","0.00"
"18:59:56","70.2","54.4","57.3","30.21","129","1.6","4.8","0.00","0.00"
"19:04:56","70.1","54.3","57.3","30.21","128","1.1","4.8","0.00","0.00"
"19:09:59","69.9","53.8","56.7","30.21","126","2.1","4.8","0.00","0.00"
"19:14:59","69.8","53.5","56.3","30.21","126","2.6","8.4","0.00","0.00"
"19:19:57","69.7","53.2","55.9","30.21","128","1.6","5.8","0.00","0.00"
"19:24:56","69.6","53.2","56.1","30.21","123","2.1","6","0.00","0.00"
"19:29:59","69.4","53.4","56.6","30.21","128","2","3.6","0.00","0.00"
"19:34:58","69.3","53.8","57.9","30.21","136","0.5","2.4","0.00","0.00"
"19:39:57","69.2","53.4","57.1","30.21","134","1.5","4.8","0.00","0.00"
"19:44:56","69.1","53.3","57.4","30.21","137","1.6","4.8","0.00","0.00"
"19:49:59","68.9","53.1","57.2","30.21","132","1.9","4.8","0.00","0.00"
"19:54:58","68.8","52.9","57","30.21","129","1.2","2.4","0.00","0.00"
"19:59:57","68.6","53","57.6","30.21","143","0.2","1.2","0.00","0.00"
"20:04:57","68.3","52.8","57.7","30.20","195","0.4","2.4","0.00","0.00"
"20:09:56","68","52.5","57.7","30.20","194","0.4","1.2","0.00","0.00"
"20:14:57","67.8","52.5","58","30.20","194","0.1","1.2","0.00","0.00"
"20:19:56","67.5","52.2","58","30.20","195","0.2","1.2","0.00","0.00"
"20:24:59","67.2","52.3","58.6","30.20","198","0","1.2","0.00","0.00"
"20:29:59","66.9","52","58.9","30.20","179","0.2","3.6","0.00","0.00"
"20:34:58","66.6","51.7","58.7","30.19","170","0.8","3.6","0.00","0.00"
"20:39:59","66.4","51.5","58.9","30.19","170","0.7","3.6","0.00","0.00"
"20:44:58","66.1","51.2","58.6","30.19","168","0.8","3.6","0.00","0.00"
"20:49:57","65.8","50.7","58.2","30.19","151","0.5","4.8","0.00","0.00"
"20:54:56","65.6","50.5","58.2","30.19","139","0.6","4.6","0.00","0.00"
"20:59:59","65.4","50.3","58.3","30.20","138","1","3.6","0.00","0.00"
"21:04:59","65.2","50.2","58.2","30.20","138","1","3.6","0.00","0.00"
"21:09:58","65.1","50.1","58.3","30.20","138","0.5","2.4","0.00","0.00"
"21:14:58","65","50.1","58.5","30.20","138","0.3","2.4","0.00","0.00"
"21:19:57","64.8","50.1","59","30.20","138","0","1.2","0.00","0.00"
"21:24:57","64.6","50.6","60.3","30.20","138","0","0","0.00","0.00"
"21:29:56","64.3","51.8","63.9","30.20","138","0","0","0.00","0.00"
"21:34:59","63.5","51.5","65","30.20","138","0","0","0.00","0.00"
"21:39:59","62.7","50.9","65.3","30.20","138","0","0","0.00","0.00"
"21:44:59","62","50.7","66.4","30.21","138","0","0","0.00","0.00"
"21:49:58","61.5","50.6","67.6","30.21","138","0","0","0.00","0.00"
"21:54:57","61.2","50.6","68","30.21","138","0","0","0.00","0.00"
"21:59:56","60.8","50.4","68.3","30.21","138","0","0","0.00","0.00"
"22:04:56","60.6","50.7","69.8","30.21","138","0","0","0.00","0.00"
"22:09:56","60.2","50.8","71","30.21","138","0","0","0.00","0.00"
"22:14:59","59.7","50.8","72.4","30.21","138","0","0","0.00","0.00"
"22:19:58","59.2","50.6","73.2","30.21","138","0","0","0.00","0.00"
"22:24:57","58.8","50.5","74.2","30.21","137","0","0","0.00","0.00"
"22:29:56","58.3","50.6","75.3","30.21","138","0","0","0.00","0.00"
"22:34:59","57.9","50.5","76.2","30.21","138","0","0","0.00","0.00"
"22:39:59","57.6","50.2","76.5","30.21","137","0","0","0.00","0.00"
"22:44:58","57.2","50.3","77.6","30.21","138","0","0","0.00","0.00"
"22:49:56","56.9","50.4","78.6","30.21","138","0","0","0.00","0.00"
"22:54:57","56.6","50.4","79.6","30.21","137","0","1.2","0.00","0.00"
"22:59:58","56.4","50.4","80.5","30.21","137","0","1.2","0.00","0.00"
"23:04:59","56.2","50.4","81","30.21","137","0","1.2","0.00","0.00"
"23:09:58","56","50.4","81.3","30.21","138","0","0","0.00","0.00"
"23:14:57","55.8","50.5","82.5","30.21","137","0","0","0.00","0.00"
"23:19:56","55.6","50.5","83","30.20","137","0","0","0.00","0.00"
"23:24:56","55.3","50.4","83.4","30.20","137","0","0","0.00","0.00"
"23:29:59","55.1","50.4","84.2","30.20","137","0","0","0.00","0.00"
"23:34:57","54.9","50.5","85","30.20","137","0","0","0.00","0.00"
"23:39:57","54.8","50.4","85","30.20","137","0","0","0.00","0.00"
"23:44:56","54.7","50.3","85","30.20","137","0","0","0.00","0.00"
"23:49:59","54.6","50.3","85.6","30.19","137","0","0","0.00","0.00"
"23:54:58","54.4","50.3","86","30.19","137","0","0","0.00","0.00"
